Location: Farley
(51.0500°N, 1.6833°W)
Time: 05:29:38
(UTC+00:00)

Daily predictions for brighter satellites

Satellite Brightness Start Highest point End
(mag) Time Altitude Azimuth Time Altitude Azimuth Time Altitude Azimuth
USA 267 4.4 00:02:11 10° ENE 00:05:37 34° ENE 00:05:37 34° ENE
Cosmos 2263 Rocket 4.2 00:31:46 22° NW 00:31:47 22° NW 00:36:11 10° NNE
Cosmos 2278 Rocket 3.8 00:51:01 31° NE 00:51:01 31° NE 00:53:56 10° NE
SL-16 R/B 3.4 00:53:22 45° NE 00:53:22 45° NE 00:58:39 10° N
CZ-4C R/B 4.4 00:46:24 10° NW 00:48:49 22° WNW 00:48:49 22° WNW
ATLAS CENTAUR R/B 4.2 01:04:54 18° NNW 01:04:54 18° NNW 01:08:01 10° NNE
CZ-2D R/B 3.9 01:05:31 10° NNE 01:08:35 25° ENE 01:08:35 25° ENE
SJ 16-02 4.2 01:06:30 10° NNW 01:07:10 14° NNW 01:07:10 14° NNW
ATLAS 5 CENTAUR R/B 3.8 01:18:57 25° NE 01:18:57 25° NE 01:21:04 10° NE
Cosmos 1844 Rocket 4.4 01:42:10 25° NW 01:42:10 25° NW 01:46:31 10° NNE
Cosmos 2082 Rocket 4.3 01:42:37 10° NW 01:43:49 16° NW 01:43:49 16° NW
USA 267 3.7 01:45:12 10° ENE 01:51:34 56° N 01:52:56 48° NW
ADEOS II 3.7 01:51:35 10° NE 01:55:59 26° E 01:56:26 26° E
Cosmos 2297 4.2 01:58:54 56° ENE 01:58:54 56° ENE 02:03:30 10° NNE
CENTAUR R/B 4.1 01:59:00 21° ESE 01:59:57 22° ESE 02:04:55 10° ENE
IRS-1D 4.3 02:01:21 10° NNE 02:06:05 51° E 02:06:05 51° E
Tsikada Rocket 4.3 02:08:19 55° NW 02:08:19 55° NW 02:13:27 10° N
Cosmos 2369 Rocket 3.7 02:07:32 26° ESE 02:08:09 27° ESE 02:12:50 10° NE
Lacrosse 5 2.8 02:08:51 45° NNE 02:08:51 45° NNE 02:13:28 10° E
Resurs 1-4 Rocket 2.6 02:05:58 10° NNE 02:10:11 58° NNE 02:10:11 58° NNE
Cosmos 2279 Rocket 3.9 02:11:15 10° N 02:17:25 86° NE 02:17:25 86° NE
Cosmos 540 Rocket 4.0 02:19:12 54° ENE 02:19:12 54° ENE 02:23:35 10° NNE
Cosmos 1570 Rocket 4.5 02:21:21 56° N 02:21:21 56° N 02:25:41 10° NNE
USA 238 DEB 3.7 02:21:37 65° SSE 02:22:04 67° SE 02:28:58 10° NE
USA 238 3.7 02:21:42 65° SSE 02:22:09 67° SE 02:29:04 10° NE
Cosmos 1634 Rocket 4.5 02:19:43 10° NNW 02:24:39 48° NW 02:24:39 48° NW
Cosmos 1763 Rocket 4.0 02:27:12 55° NNW 02:27:12 55° NNW 02:31:37 10° NNE
Meteor 1-20 Rocket 4.4 02:21:37 10° N 02:27:06 67° ENE 02:27:35 63° ESE
Cosmos 2278 Rocket 3.3 02:32:51 32° NW 02:32:51 32° NW 02:37:54 10° NNE
Gbstr 26 Del rocket 4.5 02:30:24 49° W 02:33:00 85° N 02:41:04 10° E
AQUA 4.4 02:29:07 10° NNE 02:32:44 51° N 02:32:44 51° N
SL-16 R/B 3.5 02:38:28 31° WNW 02:38:28 31° WNW 02:42:17 10° NNW
ARIANE 5 R/B 3.0 02:31:32 10° NNE 02:36:34 53° E 02:36:58 52° ESE
SL-08 R/B 4.4 02:40:05 35° NNW 02:40:05 35° NNW 02:42:53 10° NNW
SME Rocket 3.7 02:33:26 10° NNE 02:40:50 84° WNW 02:41:10 79° SW
CZ-4B R/B 3.8 02:43:42 21° N 02:43:42 21° N 02:45:04 10° N
IRIDIUM 106 4.4 02:43:28 65° SE 02:43:58 69° E 02:49:10 10° N
ATLAS CENTAUR R/B 4.3 02:42:21 10° NNW 02:45:24 16° N 02:48:19 10° NE
CZ-2D R/B 2.6 02:45:20 10° N 02:49:53 47° NW 02:49:53 47° NW
Cosmos 1943 Rocket 2.4 02:49:36 52° SSE 02:50:27 58° ESE 02:55:55 10° NE
Cosmos 1869 Rocket 4.0 02:46:47 10° N 02:50:28 59° N 02:50:28 59° N
NOSS 3-3 (A) 4.5 02:44:33 10° NW 02:51:46 55° WSW 02:59:42 10° SSE
NOSS 3-3 (C) 4.5 02:44:39 10° NW 02:51:52 55° WSW 02:59:49 10° SSE
NPP 4.1 02:48:11 10° N 02:53:03 48° NW 02:53:03 48° NW
Nadezhda 4 Rocket 4.2 02:52:13 38° SSE 02:54:33 66° E 03:00:37 10° NNE
Cosmos 1125 Rocket 3.5 02:49:44 10° NNW 02:54:36 71° WNW 02:54:36 71° WNW
CRYOSAT 2 4.3 02:55:46 73° NW 02:55:46 73° NW 03:00:14 10° N
Cosmos 2344 3.6 02:54:20 46° SSW 02:56:51 73° SE 03:05:15 10° NE
Cosmos 1814 Rocket 4.1 02:57:19 59° NW 02:57:19 59° NW 03:02:18 10° NNE
IRS-1C 3.9 02:53:26 10° NNE 02:58:48 78° WNW 02:59:11 74° WSW
deb Chang Zheng 4 3.8 02:56:36 10° NNE 03:00:27 65° NNW 03:00:27 65° NNW
Cosmos 1782 3.4 03:01:20 53° E 03:01:20 53° E 03:05:06 10° NNE
ATLAS 5 CENTAUR R/B 3.2 03:00:29 26° NW 03:01:26 28° NNW 03:05:57 10° NE
NOSS 3-2 (A) 3.4 03:04:27 59° SW 03:05:45 88° NW 03:12:34 10° NE
CBERS-1 4.4 03:03:44 10° N 03:08:30 46° WNW 03:08:30 46° WNW
ATLAS 3B R/B 2.9 03:06:39 38° S 03:09:04 58° SE 03:15:32 10° NE
NOSS 3-2 (C) 3.5 03:08:07 50° SSW 03:09:46 73° SE 03:16:30 10° NE
Unknown 4.0 03:13:26 50° ENE 03:13:26 50° ENE 03:16:12 10° ENE
Cosmos 1400 Rocket 4.2 03:11:56 26° SE 03:13:17 34° E 03:16:49 10° NNE
BREEZE-M DEB (TANK) 4.2 03:12:18 49° SW 03:13:25 56° SSW 03:28:35 10° SE
Unknown 4.5 03:14:32 39° SE 03:14:32 39° SE 03:18:12 10° ENE
Unknown 4.2 03:16:03 46° SE 03:16:03 46° SE 03:19:39 10° ENE
Unknown 4.4 03:16:25 41° SE 03:16:25 41° SE 03:20:11 10° ENE
Unknown 4.4 03:17:37 40° SE 03:17:37 40° SE 03:21:24 10° ENE
Meteor 1-25 Rocket 4.3 03:12:21 10° NNW 03:17:54 52° W 03:18:12 52° WSW
Cosmos 841 Rocket 4.0 03:17:57 42° WNW 03:18:16 42° WNW 03:23:15 10° NNE
CZ-2D R/B 3.2 03:14:56 10° NNE 03:19:00 85° ESE 03:19:06 83° SSE
Cosmos 2263 4.5 03:17:42 36° S 03:19:53 63° ESE 03:25:26 10° NE
Unknown 4.3 03:20:47 41° SSE 03:20:48 41° SSE 03:24:44 10° ENE
IDEFIX/ARIANE 42P 4.1 03:16:25 10° NNE 03:21:13 34° E 03:25:58 10° SSE
Unknown 4.3 03:22:24 42° SSE 03:22:29 42° SSE 03:26:24 10° ENE
Unknown 4.1 03:24:10 46° SSE 03:24:17 46° SSE 03:28:16 10° ENE
Unknown 4.1 03:25:26 47° SSE 03:25:32 48° SSE 03:29:30 10° ENE
Unknown 4.2 03:25:36 44° SSE 03:25:47 44° SSE 03:29:45 10° ENE
Cosmos 2228 Rocket 4.0 03:26:30 35° NW 03:26:30 35° NW 03:30:07 10° N
Cosmos 2084 Rocket 3.6 03:23:37 17° NW 03:27:05 76° NE 03:31:26 10° SE
Unknown 4.1 03:27:10 45° SSE 03:27:25 45° SSE 03:31:23 10° ENE
Iridium 4 Rocket 3.7 03:26:11 17° SSE 03:29:22 54° E 03:33:30 10° NNE
Unknown 3.4 03:30:13 63° N 03:30:13 63° N 03:33:32 10° ENE
Unknown 4.1 03:30:23 46° SSE 03:30:44 47° SSE 03:34:45 10° ENE
FALCON 9 DEB 3.3 03:31:49 66° N 03:31:49 66° N 03:35:18 10° ENE
Unknown 4.0 03:31:59 46° S 03:32:24 48° SSE 03:36:25 10° ENE
Cosmos 2026 Rocket 4.5 03:27:20 10° S 03:33:31 61° E 03:39:47 10° NNE
Unknown 4.0 03:33:35 46° S 03:34:04 49° SSE 03:38:05 10° ENE
USA 267 3.7 03:27:45 10° E 03:34:08 59° NNE 03:40:15 11° WNW
CZ-2C R/B 2.7 03:30:44 10° NNE 03:34:45 86° WNW 03:35:23 62° SSW
Meteor 1-14 Rocket 4.3 03:29:28 10° NNW 03:34:49 51° W 03:36:22 39° SW
Timation 2 Rocket 3.8 03:28:57 10° NNW 03:35:04 87° ENE 03:41:03 10° SSE
Cosmos 1346 Rocket 4.3 03:31:43 10° N 03:35:37 39° ENE 03:39:28 10° SE
Unknown 4.0 03:35:11 47° S 03:35:43 50° SSE 03:39:45 10° ENE
ADEOS II 2.2 03:30:52 10° N 03:36:01 55° WNW 03:37:22 42° WSW
Spot 4 Rocket 4.0 03:31:30 10° N 03:36:36 63° WNW 03:38:09 42° SW
Unknown 3.9 03:38:23 47° S 03:39:03 53° SSE 03:43:05 10° ENE
Meteor 1-26 Rocket 4.3 03:39:12 40° WSW 03:40:45 53° WNW 03:46:13 10° N
Unknown 3.8 03:40:15 50° SSW 03:40:58 59° SSE 03:45:03 10° ENE
Cosmos 1606 4.1 03:42:12 25° NW 03:42:12 25° NW 03:44:44 10° N
Cosmos 2227 Rocket 4.3 03:37:44 10° NNW 03:42:31 27° NE 03:47:16 10° E
Unknown 3.8 03:41:48 49° SSW 03:42:35 59° SSE 03:46:40 10° ENE
Unknown 3.9 03:41:58 47° SSW 03:42:45 56° SSE 03:46:50 10° ENE
Unknown 3.9 03:44:45 45° SSW 03:45:39 57° SSE 03:49:44 10° ENE
Cosmos 1656 Rocket 4.1 03:41:58 20° S 03:45:51 62° ESE 03:51:26 10° NE
Unknown 3.8 03:47:57 44° SSW 03:48:59 60° SSE 03:53:04 10° ENE
CENTAUR R/B 2.6 03:46:12 30° SW 03:49:32 88° SE 03:56:50 10° NE
Resurs 1-4 Rocket 3.7 03:46:52 10° NNW 03:50:28 19° NW 03:51:16 18° WNW
Unknown 3.8 03:49:33 43° SSW 03:50:38 61° SSE 03:54:44 10° ENE
Cosmos 2369 Rocket 2.3 03:49:20 34° SW 03:51:47 63° NW 03:57:27 10° NNE
Lacrosse 5 1.8 03:48:05 17° WNW 03:52:00 90° N 03:57:04 10° ESE
Unknown 3.8 03:51:09 42° SSW 03:52:18 62° SSE 03:56:24 10° ENE
Cosmos 2195 Rocket 4.5 03:47:19 12° S 03:53:09 88° WNW 03:59:26 10° N
Cosmos 2297 Rocket 4.1 03:48:21 10° NNW 03:53:22 31° NE 03:58:20 10° ESE
Unknown 3.8 03:52:45 41° SW 03:53:58 63° SSE 03:58:04 10° ENE
Cosmos 1908 Rocket 4.4 03:51:06 10° N 03:55:20 50° ENE 03:59:34 10° SSE
Cosmos 220 Rocket 3.9 03:54:51 39° SW 03:56:17 66° WNW 04:00:32 10° NNE
Cosmos 1833 4.3 03:52:14 10° NW 03:57:37 47° WSW 04:02:57 10° S
Cosmos 44 3.4 03:55:43 27° SSW 03:58:23 75° SE 04:03:09 10° NE
Cosmos 1707 Rocket 3.7 03:57:02 36° SW 03:58:29 52° WNW 04:02:48 10° N
Cosmos 1500 3.2 03:55:16 10° N 03:59:02 78° ENE 04:02:48 10° SSE
PSLV R/B 3.8 03:55:24 10° S 03:59:32 77° WSW 04:03:41 10° NNW
Unknown 3.7 03:59:07 38° SW 04:00:34 68° SSE 04:04:42 10° ENE
Unknown 3.4 04:00:59 41° W 04:02:14 81° NNW 04:06:05 10° ENE
Unknown 3.7 04:00:44 37° SW 04:02:15 69° SSE 04:06:23 10° ENE
PSLV R/B 3.8 03:58:12 10° NNE 04:02:36 71° ESE 04:06:56 10° S
Unknown 3.7 04:02:19 36° SW 04:03:54 70° SSE 04:08:02 10° ENE
Cosmos 1733 Rocket 3.1 03:59:54 10° NNW 04:04:17 58° W 04:08:39 10° S
Unknown 3.6 04:03:54 35° SW 04:05:33 72° SSE 04:09:41 10° ENE
Unknown 3.4 04:04:23 37° W 04:05:50 84° NNW 04:09:45 10° ENE
Unknown 3.6 04:05:32 34° SW 04:07:14 73° SSE 04:11:23 10° ENE
Meteor 2-6 Rocket 4.3 04:02:22 14° SSW 04:07:26 74° WNW 04:13:26 10° N
SeaSat 1 3.2 04:03:53 10° NE 04:08:43 52° ESE 04:13:31 10° SSW
Meteor 1-28 Rocket 4.1 04:10:35 29° W 04:10:35 29° W 04:13:36 10° NNW
Unknown 3.6 04:08:44 32° WSW 04:10:34 75° SSE 04:14:43 10° ENE
Starlink (trailer) 3.6 04:10:16 31° WSW 04:12:11 76° SSE 04:16:20 10° ENE
USA 238 DEB 4.3 04:09:04 21° W 04:13:24 45° NNW 04:20:10 10° NE
USA 238 4.3 04:09:09 21° W 04:13:30 46° NNW 04:20:17 10° NE
Unknown 3.6 04:11:55 30° WSW 04:13:53 78° SSE 04:18:03 10° ENE
ARIANE 5 R/B 3.6 04:11:07 10° N 04:15:24 27° WNW 04:17:18 22° W
Unknown 3.6 04:13:30 29° WSW 04:15:32 79° SSE 04:19:42 10° ENE
SL-4 R/B 2.9 04:17:01 23° SSW 04:17:01 23° SSW 04:19:37 10° SSE
Unknown 3.1 04:16:12 26° WNW 04:17:50 71° NNE 04:21:03 10° E
Meteor 1-27 Rocket 3.9 04:12:02 10° S 04:17:54 80° E 04:23:41 10° NNE
Unknown 3.5 04:16:27 25° WNW 04:18:18 61° N 04:21:48 10° E
Cosmos 2278 Rocket 4.4 04:16:27 10° NW 04:18:49 12° NNW 04:21:11 10° N
ADEOS 3.5 04:14:16 10° NNE 04:19:31 80° WNW 04:24:44 10° SSW
Cosmos 1092 Rocket 4.2 04:15:54 16° SW 04:20:39 49° WNW 04:26:38 10° N
Unknown 3.6 04:19:55 26° WSW 04:22:12 83° SSE 04:26:22 10° ENE
Unknown 3.6 04:21:32 25° WSW 04:23:53 85° SSE 04:28:04 10° ENE
Unknown 3.6 04:22:00 25° WSW 04:24:22 85° SSE 04:28:32 10° ENE
Falcon 9 debris 3.5 04:22:50 21° WNW 04:24:57 61° N 04:28:25 10° E
ATLAS CENTAUR R/B 3.3 04:21:30 10° NNW 04:25:44 33° NNE 04:29:39 10° E
PAYLOAD A 4.3 04:22:20 10° NNE 04:27:06 62° ESE 04:31:44 10° S
Meteor 1-10 Rocket 4.4 04:21:16 10° SSW 04:27:07 60° WNW 04:33:01 10° N
Unknown 3.6 04:24:42 23° WSW 04:27:11 87° SSE 04:31:21 10° ENE
Unknown 3.5 04:25:18 22° W 04:27:34 65° N 04:31:18 10° ENE
Cosmos 1812 2.6 04:23:46 10° SSW 04:27:37 75° WNW 04:31:30 10° N
Unknown 3.6 04:26:23 23° WSW 04:28:56 89° S 04:33:06 10° ENE
CZ-2D R/B 4.2 04:28:13 10° NW 04:29:16 11° NW 04:30:19 10° WNW
Meteor 1-11 Rocket 3.8 04:24:01 10° NNW 04:29:29 54° W 04:34:51 10° S
Unknown 3.6 04:27:18 22° WSW 04:29:54 89° SSE 04:34:05 10° ENE
Unknown 3.6 04:29:32 21° WSW 04:32:13 89° NNW 04:36:24 10° ENE
Cosmos 1315 Rocket 2.8 04:28:36 10° SSW 04:32:44 81° WNW 04:36:55 10° N
Unknown 3.6 04:31:05 21° WSW 04:33:50 89° NNW 04:38:01 10° ENE
Unknown 3.6 04:31:38 20° WSW 04:34:24 89° NNW 04:38:35 10° ENE
Cosmos 1943 Rocket 3.1 04:31:08 17° W 04:34:33 32° NW 04:39:33 10° NNE
Unknown 3.6 04:34:12 19° WSW 04:37:04 88° NNW 04:41:15 10° ENE
BREEZE-M DEB (TANK) 3.6 04:29:35 15° WSW 04:37:23 54° S 04:40:47 10° ESE
Cosmos 1782 4.4 04:36:58 16° W 04:37:54 17° WNW 04:40:33 10° NNW
Cosmos 1782 Rocket 3.7 04:33:51 10° N 04:38:15 78° E 04:42:38 10° SSE
USA 215 4.2 04:34:04 10° ENE 04:40:16 43° SE 04:46:26 10° SSW
Unknown 3.6 04:37:28 18° WSW 04:40:29 85° NNW 04:44:38 10° ENE
Cosmos 2266 Rocket 4.4 04:34:38 10° S 04:40:38 65° E 04:46:37 10° NNE
Unknown 3.6 04:39:02 18° WSW 04:42:06 84° NNW 04:46:17 10° ENE
Unknown 3.6 04:40:38 17° WSW 04:43:47 83° NNW 04:47:58 10° ENE
Unknown 3.6 04:42:16 16° WSW 04:45:29 82° NNW 04:49:38 10° ENE
Unknown 2.6 04:44:43 16° WNW 04:46:50 63° SSW 04:49:40 10° ESE
ATLAS 5 CENTAUR R/B 4.0 04:43:47 10° NW 04:47:41 22° N 04:52:01 10° NE
Unknown 3.6 04:45:28 15° WSW 04:48:48 81° NNW 04:52:59 10° ENE
Cosmos 1400 Rocket 4.0 04:47:35 15° WSW 04:49:51 24° WNW 04:53:03 10° NNW
Unknown 3.5 04:46:53 12° WNW 04:50:05 65° N 04:53:37 10° E
Unknown 3.6 04:47:06 15° W 04:50:30 80° NNW 04:54:39 10° ENE
Unknown 3.6 04:48:38 14° W 04:52:07 79° NNW 04:56:17 10° ENE
Unknown 3.7 04:50:11 14° W 04:53:44 79° NNW 04:57:54 10° ENE
Cosmos 1666 2.6 04:50:04 10° NNW 04:53:48 63° W 04:57:32 10° S
Sich 1 Rocket 3.6 04:49:51 10° N 04:54:19 89° W 04:58:48 10° S
Cosmos 1703 Rocket 3.5 04:50:01 10° SSW 04:54:27 82° WNW 04:58:53 10° N
Aureole 2 Rocket 2.1 04:52:24 12° SW 04:54:43 45° WNW 04:57:18 10° NNE
Unknown 3.7 04:51:21 13° W 04:54:53 73° N 04:58:56 10° ENE
Unknown 3.7 04:52:05 13° W 04:55:43 77° NNW 04:59:53 10° ENE
Meteor 1-31 Rocket 2.9 04:51:57 10° NNE 04:55:54 83° ESE 04:59:48 10° SSW
Unknown 3.7 04:53:17 13° W 04:56:57 79° NNW 05:01:07 10° ENE
Cosmos 1340 3.5 04:54:28 10° NNW 04:57:48 29° W 05:01:07 10° SSW
BREEZE-M DEB (TANK) 2.7 04:55:03 11° WSW 04:58:57 53° S 05:01:15 10° E
H-2A R/B 2.7 04:56:14 10° N 04:59:52 40° WNW 05:03:28 10° SW
ATLAS 3B R/B 3.1 04:53:56 11° WSW 04:59:59 47° NNW 05:06:22 10° NE
Unknown 3.7 04:56:27 12° W 05:00:15 77° NNW 05:04:26 10° ENE
IDEFIX/ARIANE 42P 3.0 04:55:57 10° N 05:00:55 43° WNW 05:05:52 10° SW
Cosmos 1553 Rocket 4.4 04:55:10 10° NNW 05:01:00 42° W 05:06:44 10° SSW
NOSS 3-2 (C) 4.3 04:55:34 11° W 05:01:14 41° NNW 05:07:54 10° NE
Unknown 3.7 04:58:04 12° W 05:01:57 77° NNW 05:06:06 10° ENE
EP 1 4.3 04:59:40 10° SW 05:02:24 75° SE 05:04:59 10° NE
Okean 1 4.1 04:58:32 10° S 05:02:24 55° E 05:06:19 10° NNE
Cosmos 2242 Rocket 4.1 04:58:35 10° SW 05:02:51 41° WNW 05:07:07 10° N
Unknown 3.7 04:59:50 11° W 05:03:48 74° N 05:07:57 10° ENE
Cosmos 1975 3.6 05:00:01 10° N 05:04:02 59° ENE 05:08:04 10° SSE
OPS 6432 4.2 05:01:01 10° SW 05:04:31 78° NW 05:07:30 10° NE
Cosmos 773 Rocket 4.1 04:59:38 10° SW 05:04:43 55° WNW 05:09:48 10° NNE
Unknown 3.7 05:00:55 11° W 05:04:53 73° N 05:09:00 10° ENE
Unknown 3.7 05:01:15 11° W 05:05:16 75° NNW 05:09:26 10° ENE
Unknown 3.7 05:02:50 10° W 05:06:55 74° N 05:11:04 10° ENE
Unknown 3.3 05:03:44 10° WNW 05:07:12 74° NNE 05:10:40 10° E
FALCON 9 DEB 3.4 05:05:34 10° WNW 05:09:06 73° NNE 05:12:38 10° E
Cosmos 2315 Rocket 4.0 05:03:24 10° N 05:09:38 87° W 05:15:52 10° S
Unknown 3.7 05:06:06 10° W 05:10:15 73° NNW 05:14:25 10° ENE
Cosmos 2082 4.5 05:04:41 10° NNW 05:10:20 58° NE 05:15:54 10° SE
Cosmos 1536 3.9 05:08:00 10° NW 05:11:16 24° W 05:14:31 10° SW
Cosmos 1346 Rocket 4.0 05:08:31 10° NW 05:11:45 23° W 05:15:00 10° SW
Unknown 3.7 05:07:46 10° W 05:11:56 73° N 05:16:05 10° ENE
Cosmos 2344 4.4 05:04:40 10° W 05:12:00 45° NNW 05:20:55 10° NE
Unknown 3.7 05:09:28 10° W 05:13:36 72° N 05:17:45 10° ENE
ADEOS II 4.0 05:12:48 10° NNW 05:14:38 12° NW 05:16:28 10° WNW
Unknown 3.8 05:11:07 10° W 05:15:15 72° N 05:19:25 10° ENE
USA 267 3.3 05:10:28 10° ESE 05:17:02 82° SSW 05:23:37 10° WNW
Unknown 3.8 05:14:28 10° W 05:18:36 71° N 05:22:45 10° ENE
Okean 1-7 3.2 05:15:03 10° SSW 05:19:23 56° WNW 05:23:44 10° N
Cosmos 44 Rocket 3.4 05:14:43 10° SW 05:19:45 87° NW 05:24:41 10° NE
BREEZE-M DEB (TANK) 4.0 05:13:18 10° WNW 05:19:48 33° SW 05:22:37 10° SSE
Unknown 3.8 05:16:26 10° W 05:20:34 69° N 05:24:43 10° ENE
